Location: Bois de la Silve
(44.4667°N, 6.7833°E)
Time: 04:37:24
(UTC+00:00)

Meteor 1-19 Rocket - Pass Details

Date: 14 July 2020
Orbit: 811 x 924 km, 81.2° (Epoch: 06 August)

Event Time Altitude Azimuth Distance (km) Brightness Sun altitude
Rises 01:17:18 0° 345° (NNW) 3,443 8.2 -20.2°
Reaches altitude 10° 01:19:48 10° 341° (NNW) 2,485 7.3 -20.0°
Maximum altitude 01:25:15 53° 266° (W) 1,014 4.4 -19.6°
Enters shadow 01:27:07 37° 211° (SSW) 1,273 4.6 -19.4°
